Flag for Australia Weather past 2 weeks in Campbelltown, New South Wales, Australia

Now
51 °F

Passing clouds.


Feels Like: 51 °F
Forecast: 43 / 72 °F
Wind: No wind

Location: Camden Airport

Current Time: Sep 22, 2014 at 10:50:04 PM

Latest Report: Sep 22, 2014 at 9:00 PM


Visibility: N/A

Pressure: 30.43 "Hg

Humidity: 85%

Dew point: 47 °F

Location of CampbelltownLocation

Historic Weather in Campbelltown — Graph

°F

Campbelltown temperature yesterday

Maximum temperature yesterday: 70 °F (at 3:00 PM)
Minimum temperature yesterday: 40 °F (at 5:00 AM)
Average temperature yesterday: 56 °F

Past Weeks' High & Low Weather Summary

 TemperatureHumidityPressure
High77 °F (Sep 14, 3:00 PM)100% (Sep 8, 5:00 AM)30.48 "Hg (Sep 8, 5:00 AM)
Low36 °F (Sep 19, 6:00 AM)21% (Sep 18, 2:00 PM)29.68 "Hg (Sep 10, 3:00 AM)
Average58 °F66%30.11 "Hg
* Reported Sep 7 9:00 PM — Sep 22 9:00 PM, Campbelltown, Weather by CustomWeather, © 2014

Note: Actual official high and low records may vary slightly from our data, if they occured in-between our weather recording intervals... More about our weather records

Advertising

Campbelltown weather history for previous 24 hours

 ConditionsComfort  
Time TempWeatherWind HumidityBarometerVisibility
9:00 PM
Sep 22
51 °FPassing clouds.No wind85%30.43 "HgN/A
8:00 PM56 °FCool.5 mph67%30.42 "HgN/A
6:00 PM61 °FRefreshingly cool.7 mph58%30.37 "HgN/A
5:00 PM65 °FMild.9 mph50%30.36 "HgN/A
3:00 PM69 °FMild.6 mph32%30.36 "HgN/A
2:00 PM69 °FMild.7 mph35%30.37 "HgN/A
12:00 PM68 °FScattered clouds.8 mph38%30.42 "HgN/A
11:00 AM66 °FMild.7 mph42%30.46 "HgN/A
9:00 AM62 °FCool.2 mph60%30.48 "HgN/A
8:00 AM56 °FCool.3 mph77%30.48 "HgN/A
6:00 AM47 °FPassing clouds.No wind97%30.44 "Hg3 mi
5:00 AM48 °FCool.No wind95%30.43 "HgN/A
3:00 AM49 °FPassing clouds.No wind97%30.41 "HgN/A
2:00 AM49 °FCool.No wind92%30.42 "HgN/A
12:00 AM53 °FOvercast.No wind84%30.44 "HgN/A
11:00 PM
Sep 21
52 °FCool.No wind85%30.44 "HgN/A
Weather by CustomWeather, © 2014

See weather overviewHow to use our weather pages